[[{"header":{"parameterUnit":"m.s-1","parameterCategory":1,"la1":30.2991,"la2":30.254,"lo1":-89.0895,"lo2":-89.0444,"dy":0.0017,"dx":0.0017,"nx":28,"ny":28,"refTime":"2024-06-29T03:00:00:Z","depth":0,"parameterNumber":2,"parameterNumberName":"U-component_of_WINDS"},"data":[0,0,0,0,0,0,0,0,0,0,0,0,0,0,0,0,0,0,0,0,0,0,0,0,0,0,0,0,0,0,0,0,0,0,0,0,0,0,0,0,0,0,0,0,0,0,0,0,0,0,0,0,0,0,0,0,0,0,2.1106,2.1107,0,2.1183,2.1184,2.1185,2.1188,2.1187,2.1186,2.1185,2.1261,2.1264,2.1267,0,0,0,0,0,0,0,0,0,0,0,0,0,2.0954,2.0957,2.1106,2.1107,2.1108,2.1183,2.1184,2.1185,2.1188,2.1187,2.1185,2.1184,2.126,2.1263,2.1267,0,0,0,0,0,0,0,0,0,0,0,0,0,2.1025,2.0958,2.1106,2.1118,2.112,2.1183,2.1184,2.1186,2.1188,2.1187,2.1185,2.1184,2.1259,2.1263,2.1267,2.1322,0,0,2.1281,2.1282,0,0,0,0,0,0,0,0,2.1021,2.103,2.1115,2.1117,2.112,2.1174,2.1159,2.1231,2.1188,2.1162,2.1185,2.1183,2.1233,2.1239,2.1257,2.1326,2.1329,2.1281,2.1284,2.1285,2.1287,0,0,0,0,0,0,0,2.1016,2.1027,2.1136,2.1116,2.1119,2.1118,2.1126,2.1172,2.1204,2.1164,2.1165,2.1174,2.1234,2.1253,2.1259,2.133,2.1281,2.1285,2.1287,2.1289,2.1443,2.1445,0,0,0,0,0,0,2.1009,2.1023,2.1134,2.1139,2.1066,2.1122,2.1131,2.1158,2.1204,2.121,2.1175,2.1174,2.1246,2.1254,2.1261,2.1326,2.1285,2.1289,2.1292,2.1442,2.1444,2.1445,0,0,0,0,0,0,2.1006,2.1019,2.1131,2.1081,2.1095,2.1126,2.1156,2.116,2.1179,2.1212,2.1217,2.1189,2.1245,2.1255,2.1306,2.1329,2.1291,2.1295,2.144,2.1442,2.1445,2.1457,0,0,0,0,0,0,2.1001,2.1018,2.104,2.1081,2.1098,2.1176,2.1158,2.1163,2.1187,2.1186,2.1226,2.1232,2.1245,2.13,2.1311,2.1334,2.1299,2.1438,2.1441,2.1444,2.1454,2.1459,2.1463,0,0,0,0,0,2.0996,2.1041,2.1042,2.1055,2.1127,2.1177,2.1187,2.1202,2.1189,2.1211,2.1231,2.123,2.1325,2.1305,2.1317,2.1342,2.1437,2.144,2.1444,2.1452,2.1458,2.1463,0,0,0,0,0,0,2.1001,2.1046,2.1048,2.1108,2.1139,2.1178,2.1206,2.1208,2.1243,2.124,2.1257,2.1266,2.1315,2.1334,2.1311,2.1396,2.1379,2.1385,2.1382,2.1387,2.1392,2.1385,2.1302,0,0,0,0,0,2.1009,2.1048,2.1085,2.1134,2.1149,2.1175,2.1198,2.1207,2.1239,2.1252,2.1276,2.1307,2.1343,2.1366,2.1402,2.1457,2.1464,2.148,2.1485,2.1488,2.1492,2.152,2.1526,2.1456,2.1456,2.1456,0,0,2.1026,2.1056,2.1079,2.1136,2.1161,2.1198,2.1186,2.1227,2.1254,2.1258,2.1307,2.1326,2.1361,2.1413,2.1438,2.143,2.1513,2.1492,2.1495,2.1497,2.1524,2.1531,2.1536,2.1459,2.1458,2.1458,0,0,2.1076,2.1103,2.1146,2.1171,2.1209,2.1225,2.1235,2.1274,2.1287,2.1337,2.1339,2.1371,2.1434,2.1457,2.1478,2.1534,2.1533,2.1545,2.1567,2.1593,2.1599,2.1604,2.1621,2.1627,2.1549,2.1549,2.1549,0,2.1091,2.115,2.1167,2.1207,2.1231,2.1236,2.1277,2.1301,2.1348,2.1363,2.1354,2.1431,2.1455,2.1512,2.1525,2.1543,2.1552,2.154,2.1597,2.1602,2.1607,2.1623,2.163,2.155,2.155,2.155,2.155,0,2.1166,2.1206,2.1235,2.1281,2.1308,2.1349,2.137,2.1394,2.1401,2.1417,2.1466,2.1495,2.1534,2.1549,2.1555,2.1606,2.1599,2.1594,2.1577,2.1614,2.163,2.1637,2.1552,2.1551,2.1551,2.1551,0,0,2.1221,2.1275,2.1285,2.1304,2.1346,2.1377,2.1416,2.1456,2.1475,2.1507,2.1539,2.1591,2.1585,2.1608,2.1617,2.1641,2.1679,2.1632,2.1633,2.1638,2.1733,2.1736,2.1743,2.168,2.1681,2.1682,2.1729,0,2.1274,2.1346,2.1361,2.1422,2.1457,2.1462,2.1496,2.1524,2.154,2.1571,2.1588,2.1623,2.1614,2.1628,2.1652,2.167,2.1699,2.1667,2.1707,2.1708,2.1696,2.1752,2.1755,2.1799,2.1736,2.1737,2.1738,0,2.1345,2.1378,2.1443,2.1477,2.1493,2.1523,2.1559,2.159,2.162,2.163,2.1654,2.166,2.1699,2.1681,2.1733,2.1711,2.1728,2.174,2.1742,2.1745,2.1724,2.1754,2.1813,2.1819,2.1748,2.1747,2.1747,0,2.1375,2.1436,2.1482,2.1499,2.1541,2.1562,2.158,2.161,2.1632,2.1663,2.1676,2.1711,2.173,2.1755,2.1769,2.1756,2.1819,2.1804,2.1826,2.1826,2.1838,2.1837,2.1899,2.1853,2.1853,2.1852,2.1852,0,2.1431,2.1469,2.1496,2.1525,2.1567,2.1583,2.1624,2.1642,2.1668,2.1697,2.1703,2.1731,2.1749,2.1778,2.1789,2.1829,2.1838,2.1845,2.1847,2.1843,2.1842,2.1854,2.185,2.1854,2.1854,2.1853,2.1853,0,2.1472,2.1492,2.1541,2.1577,2.1586,2.1616,2.1645,2.1671,2.1687,2.1724,2.1734,2.1757,2.1792,2.1809,2.1852,2.1859,2.1903,2.1905,2.1893,2.1893,2.1914,2.1911,2.1984,2.1993,2.1943,2.1943,2.1944,0,2.1505,2.1535,2.1573,2.1594,2.1612,2.1646,2.1668,2.1684,2.1707,2.1742,2.1763,2.1798,2.1827,2.1882,2.1902,2.1934,2.1934,2.1958,2.1939,2.1934,2.1932,2.1929,2.1931,2.196,2.1961,2.1961,2.1962,0,2.1561,2.1569,2.1601,2.1636,2.1662,2.1691,2.1718,2.1735,2.1755,2.1779,2.1815,2.1837,2.188,2.1914,2.1947,2.1964,2.1965,2.1967,2.1974,2.197,2.1961,2.1963,2.19,2.1965,2.1965,2.1965,2.1965,2.1964,2.1598,2.1623,2.1653,2.1688,2.1711,2.1736,2.1761,2.178,2.181,2.1847,2.1854,2.1891,2.1918,2.1963,2.1981,2.2008,2.2003,2.2013,2.2015,2.2017,2.2017,2.1958,2.2015,2.2015,2.2014,2.2014,2.2014,0,2.1652,2.1671,2.1703,2.1741,2.1768,2.1768,2.1798,2.182,2.1853,2.1878,2.1906,2.1946,2.1978,2.2,2.2032,2.2049,2.2051,2.2057,2.2055,2.2058,2.2021,2.2011,2.2055,2.2055,2.2055,2.2055,2.2055,2.2055,2.1683,2.1725,2.1736,2.1789,2.1808,2.1845,2.1861,2.1883,2.1904,2.1948,2.1975,2.1989,2.2012,2.2046,2.2074,2.2079,2.209,2.2096,2.2101,2.2065,2.2061,2.2057,2.2048,2.2099,2.2099,2.2135,2.2136,2.2136]},{"header":{"parameterUnit":"m.s-1","parameterCategory":1,"la1":30.2991,"la2":30.254,"lo1":-89.0895,"lo2":-89.0444,"dy":0.0017,"dx":0.0017,"nx":28,"ny":28,"refTime":"2024-06-29T03:00:00:Z","depth":0,"parameterNumber":3,"parameterNumberName":"V-component_of_WINDS"},"data":[0,0,0,0,0,0,0,0,0,0,0,0,0,0,0,0,0,0,0,0,0,0,0,0,0,0,0,0,0,0,0,0,0,0,0,0,0,0,0,0,0,0,0,0,0,0,0,0,0,0,0,0,0,0,0,0,0,0,4.5588,4.559,0,4.5754,4.5755,4.5757,4.5737,4.5735,4.5732,4.573,4.5895,4.5902,4.5909,0,0,0,0,0,0,0,0,0,0,0,0,0,4.525,4.5256,4.5588,4.559,4.5592,4.5753,4.5756,4.5758,4.5738,4.5735,4.5731,4.5728,4.5893,4.5901,4.5909,0,0,0,0,0,0,0,0,0,0,0,0,0,4.5404,4.5258,4.5588,4.5602,4.5605,4.5753,4.5756,4.5758,4.5739,4.5735,4.5731,4.5727,4.589,4.59,4.591,4.6054,0,0,4.5942,4.5946,0,0,0,0,0,0,0,0,4.5395,4.5417,4.5598,4.5601,4.5605,4.5721,4.5697,4.5857,4.574,4.5688,4.573,4.5725,4.584,4.5854,4.5894,4.6062,4.6069,4.5943,4.5949,4.5954,4.5957,0,0,0,0,0,0,0,4.5385,4.5409,4.5653,4.56,4.5605,4.5598,4.5616,4.5727,4.5784,4.5692,4.5691,4.5711,4.5841,4.5884,4.5898,4.6071,4.5943,4.5952,4.5958,4.5962,4.6362,4.6366,0,0,0,0,0,0,4.5371,4.5401,4.5648,4.5658,4.5488,4.5608,4.5627,4.5688,4.5783,4.5794,4.5714,4.5709,4.5868,4.5886,4.5903,4.6076,4.5954,4.5963,4.5969,4.6358,4.6363,4.6368,0,0,0,0,0,0,4.5364,4.5394,4.5642,4.5529,4.556,4.5618,4.5686,4.5693,4.5736,4.58,4.5809,4.5748,4.5866,4.5889,4.6016,4.6082,4.5968,4.5977,4.6352,4.6359,4.6365,4.6424,0,0,0,0,0,0,4.5354,4.5391,4.5448,4.5531,4.5567,4.5754,4.569,4.5699,4.5754,4.5749,4.5834,4.5844,4.5865,4.6001,4.6027,4.6094,4.5985,4.6347,4.6356,4.6363,4.6417,4.6432,4.6445,0,0,0,0,0,4.5342,4.5457,4.5451,4.5481,4.5639,4.5757,4.5778,4.58,4.576,4.5816,4.5856,4.5841,4.607,4.6014,4.6043,4.6114,4.6343,4.6353,4.6363,4.641,4.6429,4.6445,0,0,0,0,0,0,4.538,4.5469,4.5462,4.5608,4.5675,4.5754,4.5826,4.582,4.5899,4.5891,4.5914,4.5934,4.6062,4.6101,4.6037,4.6257,4.6201,4.6217,4.6227,4.6245,4.6259,4.6247,4.5994,0,0,0,0,0,4.5405,4.5495,4.5567,4.5689,4.5723,4.5769,4.5821,4.5832,4.5903,4.5931,4.5981,4.6049,4.6136,4.6193,4.6276,4.6422,4.6439,4.6485,4.6499,4.651,4.6524,4.6602,4.6622,4.6401,4.64,4.64,0,0,4.5458,4.5517,4.5573,4.5698,4.5751,4.5843,4.5793,4.5892,4.596,4.5946,4.6069,4.6108,4.6185,4.6321,4.6384,4.6358,4.6589,4.6523,4.6532,4.6539,4.6614,4.6635,4.6654,4.6407,4.6406,4.6405,0,0,4.5601,4.5656,4.5762,4.5817,4.5899,4.5928,4.5953,4.6033,4.6058,4.6183,4.6174,4.6253,4.6403,4.6458,4.6505,4.6666,4.6655,4.6693,4.6767,4.6843,4.686,4.6876,4.6932,4.6952,4.6706,4.6706,4.6706,0,4.5656,4.5795,4.5817,4.5918,4.5972,4.5964,4.607,4.6122,4.6226,4.6263,4.6232,4.6419,4.647,4.6618,4.6658,4.6697,4.6725,4.6684,4.6856,4.6872,4.6887,4.6941,4.6962,4.671,4.671,4.6709,4.6709,0,4.5858,4.5954,4.603,4.6132,4.6194,4.6297,4.6333,4.6393,4.6398,4.643,4.6555,4.6616,4.6711,4.6747,4.6753,4.6896,4.6877,4.6851,4.6795,4.6912,4.6963,4.6983,4.6716,4.6715,4.6713,4.6712,0,0,4.603,4.6142,4.617,4.6215,4.6304,4.6378,4.6479,4.6573,4.6623,4.6695,4.6779,4.6905,4.6881,4.6935,4.6947,4.7013,4.7135,4.6978,4.6981,4.7005,4.7294,4.7313,4.7336,4.7127,4.7131,4.7135,4.7287,0,4.6181,4.6363,4.6384,4.6544,4.6632,4.6625,4.6713,4.6775,4.6807,4.6885,4.6919,4.7008,4.697,4.7002,4.7067,4.7106,4.7193,4.7095,4.7204,4.7208,4.7186,4.7363,4.7384,4.7525,4.7307,4.7311,4.7313,0,4.6383,4.646,4.663,4.6705,4.6742,4.6821,4.6908,4.6983,4.7053,4.7071,4.713,4.7133,4.7235,4.7175,4.7315,4.7248,4.7293,4.7319,4.7325,4.7336,4.7268,4.7378,4.7571,4.7592,4.7345,4.7342,4.734,0,4.649,4.6637,4.6757,4.6796,4.6887,4.6942,4.6982,4.7048,4.7103,4.7178,4.7213,4.7298,4.7345,4.741,4.7435,4.7389,4.7573,4.7515,4.759,4.7589,4.7629,4.7626,4.7831,4.7659,4.7659,4.7658,4.7658,0,4.6657,4.676,4.6806,4.688,4.6995,4.7018,4.713,4.7167,4.7226,4.7305,4.7303,4.7377,4.7406,4.7484,4.7503,4.7615,4.7637,4.7653,4.7657,4.7653,4.7651,4.7683,4.7674,4.7664,4.7663,4.7662,4.7661,0,4.6797,4.6832,4.6962,4.7037,4.7058,4.7139,4.7202,4.7272,4.7302,4.7402,4.7427,4.7474,4.7565,4.7596,4.7707,4.772,4.785,4.7846,4.7827,4.7828,4.79,4.7893,4.8133,4.8165,4.7972,4.7974,4.7975,0,4.6901,4.698,4.7063,4.7117,4.7159,4.7245,4.73,4.7325,4.7382,4.7467,4.7526,4.7617,4.7691,4.7837,4.788,4.7964,4.7961,4.804,4.7974,4.7967,4.7962,4.7957,4.7964,4.8052,4.8054,4.8056,4.8057,0,4.7081,4.7094,4.7175,4.7261,4.7327,4.7396,4.7463,4.7506,4.754,4.7604,4.7698,4.7756,4.7868,4.7958,4.8043,4.8082,4.8075,4.8077,4.8099,4.8096,4.8081,4.8089,4.786,4.8072,4.807,4.8069,4.8068,4.8068,4.7206,4.7275,4.7344,4.7433,4.7486,4.7548,4.7617,4.7655,4.7735,4.7829,4.7838,4.7939,4.8004,4.8118,4.8161,4.8239,4.8217,4.8249,4.8256,4.8264,4.8269,4.8069,4.8255,4.8254,4.8254,4.8254,4.8254,0,4.7385,4.7429,4.7511,4.7604,4.7673,4.7661,4.7733,4.7792,4.7881,4.7943,4.8016,4.8123,4.8209,4.8258,4.8344,4.8397,4.8395,4.8418,4.8415,4.8423,4.8284,4.8257,4.8418,4.8418,4.8418,4.8418,4.8418,4.8418,4.7487,4.7603,4.7624,4.7766,4.7808,4.7908,4.795,4.8006,4.8056,4.8176,4.8248,4.8279,4.8336,4.8425,4.8503,4.8515,4.8546,4.8572,4.8581,4.845,4.8434,4.8417,4.8392,4.8579,4.8579,4.8714,4.8715,4.8716]}]]